Find Starlink 32489

NORAD ID: 61893 Int'l Des: 2024-204 Owner: SPXS Country: US Constellation: starlink operational
LEOCIRCULAR

現在のビュー

3D地球を読み込み中...

About Starlink 32489

Starlink 32489 (NORAD 61893) is a starlink constellation satellite (v2 mini) launched Nov 9, 2024 by SPXS of US. It operates in LEO, CIRCULAR orbit with a mass of 730.00 kg.

次回通過

Passes for default location (London). Set your location on the main map for personalized predictions.

高度履歴

Loading altitude history...

軌道要素

1 61893U 24204V 26265.29377372 -.00000286 00000-0 26690-5 0 9995
2 61893 53.1610 289.2576 0001134 98.2842 261.8289 15.34382740105252
Epoch: Sep 22, 2026 • Age: 24 hours

現在のステータス

高度 465.8 km
遠地点 / 近地点 N/A
速度 7.64 km/s
衛星直下点 39.66°N, 140.27°W
打ち上げ日 Nov 9, 2024
運用期間 1.8 years
タイプ internet

技術仕様

分類 Payload
質量 730.00 kg
乾燥質量 700.00 kg
長さ 0.30 m
スパン 29.00 m
形状 ? Box + pan
製造者 SPXS
バスタイプ Starlink V2M
フェーズステータス In Orbit
所有者/国 SPXS/US

Most Searched